Minot, ND

4:17 PM CDT on March 28, 2017 (GMT -0500)
Minot International

Weather History for KMOT - September, 2011

Change the Weather History Date:

Friday, September 16, 2011

  Actual Average Record
Temperature  
Mean Temperature 51 °F 58 °F  
Max Temperature 55 °F 69 °F 96 °F (1908)
Min Temperature 47 °F 46 °F 24 °F (1959)
Degree Days  
Heating Degree Days 14 8  
Month to date heating degree days 83 94  
Since 1 July heating degree days 84 165  
Cooling Degree Days 0 1  
Month to date cooling degree days 36 25  
Year to date cooling degree days 486 436  
Moisture  
Dew Point 40 °F    
Average Humidity 69    
Maximum Humidity 77    
Minimum Humidity 61    
Precipitation  
Precipitation 0.00 in 0.04 in 2.08 in (1954)
Month to date precipitation 0.10 0.79  
Year to date precipitation 19.66 14.23  
Sea Level Pressure  
Sea Level Pressure 29.97 in    
Wind  
Wind Speed 16 mph (SSE)    
Max Wind Speed 24 mph    
Max Gust Speed 31 mph    
Visibility 10 miles    
Events      
T = Trace of Precipitation, MM = Missing Value Source: NWS Daily Summary

Daily Weather History Graph

Daily Weather History Graph

Search for Another Location

Airport or City:

Trip Planner

Search our weather history database for the weather conditions in past years. The results will help you decide how hot, cold, wet, or windy it might be!

Date:

Astronomy

Sep. 16, 2011 Rise Set
Actual Time 7:23 AM CDT 7:55 PM CDT
Civil Twilight 6:51 AM CDT 8:27 PM CDT
Nautical Twilight 6:14 AM CDT 9:04 PM CDT
Astronomical Twilight 5:35 AM CDT 9:43 PM CDT
Moon 9:20 PM CDT (9/16) 11:56 AM CDT (9/16)
Length of Visible Light 13h 35m
Length of Day
12h 32m
Waning Gibbous, 84% of the Moon is Illuminated
Sep 16
Waning Gibbous
Sep 20
Last Quarter
Sep 27
New
Oct 3
First Quarter
Oct 11
Full

Hourly Weather History & Observations

Time (CDT) Temp. Dew Point Humidity Pressure Visibility Wind Dir Wind Speed Gust Speed Precip Events Conditions
12:54 AM 48.9 °F 39.0 °F 69% 30.06 in 10.0 mi SSE 21.9 mph 27.6 mph N/A   Overcast
1:54 AM 48.0 °F 37.9 °F 68% 30.05 in 10.0 mi SSE 20.7 mph 29.9 mph N/A   Overcast
2:54 AM 48.0 °F 37.0 °F 66% 30.04 in 10.0 mi SSE 18.4 mph 28.8 mph N/A   Overcast
3:54 AM 48.2 °F 37.4 °F 66% 30.01 in 10.0 mi SSE 18.4 mph 24.2 mph N/A   Overcast
4:54 AM 48.0 °F 37.0 °F 66% 30.02 in 10.0 mi SSE 16.1 mph 28.8 mph N/A   Overcast
5:54 AM 48.0 °F 37.0 °F 66% 30.01 in 10.0 mi SSE 19.6 mph - N/A   Overcast
6:54 AM 48.2 °F 37.4 °F 66% 29.99 in 10.0 mi SSE 16.1 mph 27.6 mph N/A   Overcast
7:54 AM 46.9 °F 39.0 °F 74% 30.02 in 10.0 mi SE 12.7 mph - N/A   Overcast
8:54 AM 48.0 °F 39.0 °F 71% 30.01 in 10.0 mi SE 13.8 mph 21.9 mph N/A   Overcast
9:54 AM 48.0 °F 39.0 °F 71% 29.99 in 10.0 mi SSE 18.4 mph 28.8 mph N/A   Overcast
10:54 AM 50.0 °F 39.9 °F 68% 29.99 in 10.0 mi SSE 16.1 mph 26.5 mph N/A   Overcast
11:54 AM 50.0 °F 39.2 °F 66% 29.95 in 10.0 mi SE 17.3 mph 28.8 mph N/A   Overcast
12:54 PM 52.0 °F 41.0 °F 66% 29.96 in 10.0 mi SSE 18.4 mph 26.5 mph N/A   Overcast
1:54 PM 54.0 °F 41.0 °F 62% 29.95 in 10.0 mi SSE 20.7 mph 29.9 mph N/A   Overcast
2:54 PM 55.0 °F 42.1 °F 62% 29.95 in 10.0 mi SSE 17.3 mph 24.2 mph N/A   Overcast
3:54 PM 55.0 °F 42.1 °F 62% 29.94 in 10.0 mi SSE 15.0 mph 21.9 mph N/A   Overcast
4:54 PM 55.0 °F 42.1 °F 62% 29.92 in 10.0 mi SE 16.1 mph 28.8 mph N/A   Overcast
5:54 PM 54.0 °F 42.1 °F 64% 29.94 in 10.0 mi SSE 18.4 mph 24.2 mph N/A   Overcast
6:54 PM 53.1 °F 42.1 °F 66% 29.92 in 10.0 mi SSE 18.4 mph 27.6 mph N/A   Overcast
7:54 PM 53.1 °F 43.0 °F 69% 29.92 in 10.0 mi SSE 16.1 mph - N/A   Overcast
8:54 PM 53.1 °F 43.0 °F 69% 29.93 in 10.0 mi SSE 16.1 mph 23.0 mph N/A   Overcast
9:54 PM 53.1 °F 44.1 °F 71% 29.94 in 10.0 mi SSE 15.0 mph - N/A   Overcast
10:54 PM 53.1 °F 44.1 °F 71% 29.93 in 10.0 mi SSE 11.5 mph - N/A   Overcast
11:54 PM 52.0 °F 44.1 °F 74% 29.92 in 10.0 mi SE 10.4 mph - N/A   Overcast